Weather History for Aberdeen / Amory, MS

Change the Weather History Date:

Saturday, December 29, 2012

  Actual Average (KCBM) Record (KCBM)
Temperature  
Mean Temperature 34 °F -  
Max Temperature 41 °F 52 °F 73 °F (1996)
Min Temperature 28 °F 34 °F 26 °F (1999)
Degree Days  
Heating Degree Days 30    
Moisture  
Dew Point 31 °F    
Average Humidity 85    
Maximum Humidity 93    
Minimum Humidity 80    
Precipitation  
Precipitation 0.00 in - - ()
Sea Level Pressure  
Sea Level Pressure 30.20 in    
Wind  
Wind Speed 9 mph (NW)    
Max Wind Speed 14 mph    
Max Gust Speed 21 mph    
Visibility 8 miles    
Events      
Averages and records for this station are not official NWS values.
T = Trace of Precipitation, MM = Missing Value Source: NWS Daily Summary

Daily Weather History Graph

Daily Weather History Graph

Search for Another Location

Airport:

Trip Planner

Search our weather history database for the weather conditions in past years. The results will help you decide how hot, cold, wet, or windy it might be!

Date:

Astronomy

Dec. 29, 2012 Rise Set
Actual Time 6:58 AM CST 4:54 PM CST
Civil Twilight 6:30 AM CST 5:21 PM CST
Nautical Twilight 5:59 AM CST 5:53 PM CST
Astronomical Twilight 5:29 AM CST 6:23 PM CST
Moon 6:22 PM CST (12/29) 7:35 AM CST (12/29)
Length of Visible Light 10h 51m
Length of Day
9h 55m
Full, 98% of the Moon is Illuminated
Dec 29
Full
Jan 4
Last Quarter
Jan 11
New
Jan 18
First Quarter
Jan 26
Full

Hourly Weather History & Observations

Time (CST) Temp. Windchill Dew Point Humidity Pressure Visibility Wind Dir Wind Speed Gust Speed Precip Events Conditions
12:15 AM 41.0 °F 35.2 °F 37.4 °F 87% 29.91 in 10.0 mi WNW 9.2 mph - N/A   Overcast
12:35 AM 41.0 °F 35.2 °F 37.4 °F 87% 29.91 in 10.0 mi WNW 9.2 mph 16.1 mph N/A   Overcast
12:55 AM 39.2 °F 34.2 °F 37.4 °F 93% 29.92 in 10.0 mi WNW 6.9 mph - N/A   Overcast
1:15 AM 39.2 °F 32.5 °F 35.6 °F 87% 29.93 in 10.0 mi WNW 10.4 mph - N/A   Overcast
1:35 AM 39.2 °F 31.6 °F 35.6 °F 87% 29.95 in 10.0 mi WNW 12.7 mph 17.3 mph N/A   Overcast
1:55 AM 39.2 °F 32.5 °F 35.6 °F 87% 29.96 in 10.0 mi WNW 10.4 mph - N/A   Overcast
2:15 AM 37.4 °F 29.3 °F 33.8 °F 87% 29.98 in 10.0 mi NW 12.7 mph 20.7 mph N/A   Overcast
2:35 AM 37.4 °F 30.8 °F 33.8 °F 87% 29.99 in 10.0 mi WNW 9.2 mph - N/A   Overcast
2:55 AM 37.4 °F 30.8 °F 33.8 °F 87% 29.99 in 10.0 mi NW 9.2 mph 18.4 mph N/A   Overcast
3:15 AM 37.4 °F 31.4 °F 33.8 °F 87% 30.00 in 10.0 mi NW 8.1 mph - N/A   Overcast
3:35 AM 37.4 °F 30.8 °F 33.8 °F 87% 30.01 in 10.0 mi NW 9.2 mph - N/A   Overcast
3:55 AM 37.4 °F 30.8 °F 33.8 °F 87% 30.01 in 10.0 mi WNW 9.2 mph - N/A   Overcast
4:15 AM 37.4 °F 31.4 °F 33.8 °F 87% 30.02 in 10.0 mi WNW 8.1 mph - N/A   Overcast
4:35 AM 37.4 °F 29.3 °F 33.8 °F 87% 30.02 in 10.0 mi NW 12.7 mph - N/A   Overcast
4:55 AM 37.4 °F 30.8 °F 33.8 °F 87% 30.04 in 10.0 mi NW 9.2 mph - N/A   Overcast
5:15 AM 37.4 °F 30.8 °F 33.8 °F 87% 30.05 in 8.0 mi NW 9.2 mph - N/A   Overcast
5:35 AM 37.4 °F 32.1 °F 33.8 °F 87% 30.06 in 7.0 mi NW 6.9 mph - N/A   Overcast
5:55 AM 37.4 °F 31.4 °F 33.8 °F 87% 30.06 in 9.0 mi NW 8.1 mph - N/A   Overcast
6:15 AM 37.4 °F 32.8 °F 33.8 °F 87% 30.07 in 9.0 mi NW 5.8 mph - N/A   Overcast
6:35 AM 37.4 °F 32.8 °F 33.8 °F 87% 30.08 in 9.0 mi WNW 5.8 mph - N/A   Overcast
6:55 AM 37.4 °F 31.4 °F 33.8 °F 87% 30.09 in 9.0 mi WNW 8.1 mph - N/A   Overcast
7:15 AM 37.4 °F 32.8 °F 33.8 °F 87% 30.10 in 9.0 mi West 5.8 mph - N/A   Overcast
7:35 AM 37.4 °F 30.3 °F 33.8 °F 87% 30.11 in 7.0 mi NW 10.4 mph - N/A   Overcast
7:55 AM 37.4 °F 32.1 °F 32.0 °F 81% 30.12 in 6.0 mi WNW 6.9 mph - N/A   Haze
8:35 AM 37.4 °F 28.9 °F 32.0 °F 81% 30.15 in 6.0 mi NW 13.8 mph 18.4 mph N/A   Haze
8:55 AM 37.4 °F 30.3 °F 32.0 °F 81% 30.16 in 6.0 mi NW 10.4 mph 16.1 mph N/A   Haze
9:15 AM 37.4 °F 31.4 °F 32.0 °F 81% 30.17 in 6.0 mi NW 8.1 mph - N/A   Haze
9:35 AM 37.4 °F 31.4 °F 32.0 °F 81% 30.17 in 7.0 mi NW 8.1 mph - N/A   Overcast
10:15 AM 37.4 °F 30.8 °F 32.0 °F 81% 30.18 in 6.0 mi NW 9.2 mph - N/A   Haze
10:35 AM 37.4 °F 31.4 °F 32.0 °F 81% 30.19 in 6.0 mi NW 8.1 mph - N/A   Haze
10:55 AM 37.4 °F 30.8 °F 32.0 °F 81% 30.18 in 7.0 mi NW 9.2 mph - N/A   Mostly Cloudy
11:15 AM 37.4 °F 32.1 °F 32.0 °F 81% 30.19 in 5.0 mi West 6.9 mph - N/A   Light Drizzle
11:55 AM 37.4 °F 30.3 °F 32.0 °F 81% 30.18 in 5.0 mi West 10.4 mph - N/A   Haze
12:15 PM 35.6 °F 28.6 °F 32.0 °F 87% 30.19 in 5.0 mi NW 9.2 mph 17.3 mph N/A   Haze
12:35 PM 35.6 °F 29.2 °F 32.0 °F 87% 30.19 in 6.0 mi NW 8.1 mph 16.1 mph N/A   Haze
12:55 PM 35.6 °F 29.9 °F 32.0 °F 87% 30.19 in 7.0 mi NW 6.9 mph - N/A   Overcast
1:15 PM 37.4 °F 32.8 °F 32.0 °F 81% 30.19 in 7.0 mi NW 5.8 mph - N/A   Overcast
1:35 PM 37.4 °F 29.8 °F 32.0 °F 81% 30.20 in 7.0 mi NW 11.5 mph 19.6 mph N/A   Overcast
2:15 PM 35.6 °F 28.6 °F 32.0 °F 87% 30.22 in 7.0 mi WNW 9.2 mph - N/A   Overcast
2:35 PM 35.6 °F 27.5 °F 32.0 °F 87% 30.23 in 7.0 mi NW 11.5 mph - N/A   Mostly Cloudy
2:55 PM 35.6 °F 28.0 °F 32.0 °F 87% 30.24 in 8.0 mi NW 10.4 mph - N/A   Overcast
3:15 PM 35.6 °F 26.6 °F 32.0 °F 87% 30.25 in 8.0 mi NNW 13.8 mph - N/A   Overcast
3:35 PM 35.6 °F 28.0 °F 30.2 °F 81% 30.26 in 9.0 mi NNW 10.4 mph - N/A   Overcast
3:55 PM 35.6 °F 28.6 °F 30.2 °F 81% 30.27 in 8.0 mi NW 9.2 mph 16.1 mph N/A   Overcast
4:15 PM 35.6 °F 28.0 °F 30.2 °F 81% 30.28 in 7.0 mi NW 10.4 mph 18.4 mph N/A   Overcast
4:35 PM 35.6 °F 28.6 °F 30.2 °F 81% 30.29 in 8.0 mi NNW 9.2 mph - N/A   Overcast
4:55 PM 35.6 °F 28.0 °F 30.2 °F 81% 30.30 in 7.0 mi NNW 10.4 mph 18.4 mph N/A   Overcast
5:15 PM 33.8 °F 25.8 °F 28.4 °F 81% 30.31 in 9.0 mi NW 10.4 mph 16.1 mph N/A   Overcast
5:35 PM 33.8 °F 26.4 °F 28.4 °F 81% 30.32 in 9.0 mi NW 9.2 mph - N/A   Scattered Clouds
5:55 PM 32.0 °F 25.6 °F 28.4 °F 87% 30.34 in 9.0 mi NW 6.9 mph - N/A   Clear
6:15 PM 32.0 °F 28.7 °F 28.4 °F 87% 30.35 in 8.0 mi NW 3.5 mph - N/A   Mostly Cloudy
6:35 PM 32.0 °F 28.7 °F 28.4 °F 87% 30.36 in 9.0 mi NW 3.5 mph - N/A   Overcast
6:55 PM 32.0 °F - 28.4 °F 87% 30.36 in 9.0 mi Calm Calm - N/A   Overcast
7:15 PM 32.0 °F 24.8 °F 28.4 °F 87% 30.37 in 9.0 mi NW 8.1 mph - N/A   Overcast
7:35 PM 33.8 °F 27.7 °F 28.4 °F 81% 30.38 in 9.0 mi NW 6.9 mph - N/A   Overcast
7:55 PM 33.8 °F 27.7 °F 28.4 °F 81% 30.39 in 9.0 mi NW 6.9 mph - N/A   Mostly Cloudy
8:15 PM 33.8 °F 28.6 °F 28.4 °F 81% 30.40 in 9.0 mi NW 5.8 mph - N/A   Mostly Cloudy
8:35 PM 33.8 °F 28.6 °F 28.4 °F 81% 30.41 in 9.0 mi NW 5.8 mph - N/A   Mostly Cloudy
8:55 PM 33.8 °F 25.8 °F 28.4 °F 81% 30.41 in 9.0 mi NNW 10.4 mph - N/A   Overcast
9:15 PM 32.0 °F 24.8 °F 28.4 °F 87% 30.41 in 8.0 mi NNW 8.1 mph - N/A   Overcast
9:35 PM 32.0 °F 24.8 °F 28.4 °F 87% 30.42 in 9.0 mi NNW 8.1 mph - N/A   Mostly Cloudy
9:55 PM 32.0 °F 25.6 °F 26.6 °F 80% 30.43 in 8.0 mi North 6.9 mph - N/A   Mostly Cloudy
10:15 PM 32.0 °F 25.6 °F 28.4 °F 87% 30.44 in 9.0 mi NNW 6.9 mph - N/A   Mostly Cloudy
10:35 PM 32.0 °F 28.7 °F 26.6 °F 80% 30.45 in 9.0 mi NNW 3.5 mph - N/A   Mostly Cloudy
10:55 PM 30.2 °F - 26.6 °F 86% 30.45 in 9.0 mi Calm Calm - N/A   Partly Cloudy
11:15 PM 28.4 °F - 26.6 °F 93% 30.44 in 8.0 mi Calm Calm - N/A   Clear
11:35 PM 28.4 °F - 24.8 °F 86% 30.45 in 8.0 mi Calm Calm - N/A   Clear